Retour au catalogue

STARLINK-38045

ActifCommunicationsVLEO
NORAD 100010·PAYLOAD·🇺🇸 United States

Lancé Jul 14, 2026 depuis Vandenberg Space Force Base

Loading…

Prochains Passages (prochaines 24 heures)

TLE

FraisSource: Space-Track

Époque: Sep 14, 2026, 20:37 UTC

1 A0010U 26160K   26257.85917290  .00282406  00000-0  16303-2 0  9996
2 A0010  70.0020 210.8833 0003577 258.1560 101.9239 15.77691339 11105

Suivez STARLINK-38045 en temps réel avec AllMySat

Download on the App Store